User: anonymous   Login
Location: 22
(39.7117°N, 89.5929°W)
Time: 06:35:23
(UTC-05:00)
Language:

Gurwin Techsat 1B - Orbit

View from above orbital plane
View from above orbital plane
View from above satellite
View from above satellite

Ground track
Ground track

The orbit data is extracted from the following two-line orbital elements,

1 25397U 98043D   24164.88111998  .00000176  00000-0  96354-4 0  9997
2 25397  98.9211 131.5396 0001788 134.2129 225.9196 14.24055402346804
Epoch (UTC): 12 June 2024 21:08:48
Eccentricity: 0.0001788
inclination: 98.9211°
perigee height: 810 km
apogee height: 813 km
right ascension of ascending node: 131.5396°
argument of perigee: 134.2129°
revolutions per day: 14.24055402
mean anomaly at epoch: 225.9196°
orbit number at epoch: 34680

The dashed part of the orbit path shows where the satellite is in the earth's shadow,  

DLR